COSMOS 1275 DEB

Satellite information

Favourite Embed

Satellite Type and Status

DEBRISIN ORBIT

Key statistics

Satellite COSMOS 1275 DEB at a glance.

Uptime

16214

Days in orbit

Revolutions

≈ 13.6

Per day

Orbit

LEO

Low Earth Orbit

Inclination

83.1

Latest

Satellite identification and parameters

Extended collection of information and parameters for COSMOS 1275 DEB.

Object identification

Identified? True

Debris? True

Object name: COSMOS 1275 DEB

International designator: 1981-053FN

Object number (NORAD): 13466

Object ID (CCSDS): 13466

Country: COMMONWEALTH OF INDEPENDENT STATES (CIS)

Current information (Y/N): Y

RCS size: SMALL

Orbital parameters

Period: 105.859 minutes

Inclination: 83.073 deg

SMA: 7412.723 km

Apoapsis: 1141.718 km

Periapsis: 927.458 km

RAAN: 353.1453 deg

Eccentricy: 0.01445216

Argument of periapsis: 157.6312 deg

Mean anomaly: 227.3184 deg

Mean motion: 13.60304344 rev/day

Mean motion (dot): -0.00000101 rev/day2

B* drag term: -0.00014524736 1/REarth

Two-line elements (TLE)

Creation date: Oct. 25, 2025, 3:11 a.m.

Reference frame: TEME

Reference center: EARTH

Epoch: Oct. 24, 2025, 10:15 a.m. UTC

TLE line 0: 0 COSMOS 1275 DEB

TLE line 1: 1 13466U 81053FN 25297.42774209 -.00000101 00000-0 -14525-3 0 9991

TLE line 2: 2 13466 83.0730 353.1453 0144522 157.6312 227.3184 13.60304344148918

Live tracking on map

Real-time ground track for satellite COSMOS 1275 DEB.

In-orbit conjunctions

A list of the most updated potential collisions computed for object COSMOS 1275 DEB.

Target Orbit TCA Probability of collision Miss distance Type
SL-8 R/B LEO 2025-01-19 06:10:13 0.0002524973 226.0 (m) ROCKET BODY
OV1-4 SSO 2024-11-07 17:38:55 0.0006063467 804.0 (m) PAYLOAD

Associated space launch

Navigation satellite providing location information for the Tsiklon-B navigation system

COSMOS 1275 DEB was lifted into orbit during the mission ‘Kosmos-3M | Parus 27’, on board a Kosmos-3M space rocket.

The launch took place on June 4, 1981, 3:41 p.m. from 132/2.

For more information about the launch, click the button.

Launch to space Kosmos-3M | Parus 27
Kosmos-3M | Parus 27

Agency: N/A

Status: Launch Successful

Launch date: June 4, 1981, 3:41 p.m. UTC

Rocket: Kosmos-3M

Launch pad: 132/2

Location: Plesetsk Cosmodrome, Russian Federation

...

Latest news about this satellite

There are no fresh news available about this satellite. Check back as we update our databases every day.


Newsletter sign-up

Weekly statistics, charts and insights to help you stay on top of the space industry.